Temperature
17 16 16 16 16 16 16 16 16 16 16 15 15 15 15 15 15 15 15 15 15 14 14 14 14 14 14 14 14 14 14 14 14 13 13 13 13 13 13 13 13 13 13
17 16 16 16 16 16 16 16 16 16 16 15 15 15 15 15 15 15 15 15 14 14 14 14 14 14 14 14 14 14 14 14 14 13 13 13 13 13 13 13 12 12 12
17 16 16 16 16 16 16 16 16 16 16 15 15 15 15 15 15 14 14 14 14 14 14 14 14 14 14 14 14 14 14 14 13 13 13 13 13 13 13 12 12 12 12
17 16 16 16 16 16 16 16 16 16 15 15 15 15 15 15 15 14 14 14 14 14 14 14 14 14 14 14 14 13 13 13 13 13 13 13 13 13 12 12 12 12 12
17 17 16 16 16 16 16 16 16 16 15 15 15 15 15 15 14 14 14 14 14 14 14 14 14 13 13 13 13 13 13 13 13 13 13 13 13 12 12 12 12 12 12
17 17 16 16 16 16 16 16 16 15 15 15 15 15 15 14 14 14 14 14 14 14 13 13 13 13 13 13 13 13 13 13 13 13 13 12 12 12 12 12 12 12 11
17 17 16 16 16 16 16 16 15 15 15 15 15 15 14 14 14 14 14 14 14 13 13 13 13 13 13 13 13 13 12 12 12 12 12 12 12 11 11 11 11 11 11
17 17 16 16 16 16 16 15 15 15 15 15 15 14 14 14 14 14 13 13 13 13 13 13 13 13 12 12 12 12 12 12 12 11 11 11 11 11 11 11 10 10 10
17 17 17 16 16 16 16 15 15 15 15 15 14 14 14 14 13 13 13 13 13 13 13 12 12 12 12 12 12 12 12 12 11 11 11 11 11 10 10 10 10 10 10
17 17 16 16 16 16 16 15 15 15 15 14 14 14 14 13 13 13 13 13 13 13 12 12 12 12 12 11 11 11 11 11 11 11 11 10 10 10 10 10 10 9 9
17 17 16 16 16 16 15 15 15 15 14 14 14 14 13 13 13 13 12 12 12 12 12 12 12 12 11 11 11 11 10 10 10 10 10 10 10 10 10 9 9 9 9
17 17 16 16 16 16 15 15 15 15 14 14 14 13 13 13 13 13 12 12 12 12 12 12 11 11 11 11 10 10 10 10 10 10 10 10 9 9 9 9 9 8 8
17 17 16 16 16 15 15 15 15 14 14 14 14 13 13 13 13 12 12 12 12 11 11 11 11 10 10 10 10 10 9 9 9 9 9 9 9 8 8 8 8 8 8
17 16 16 16 15 15 15 15 14 14 14 14 13 13 13 13 12 12 12 12 11 11 11 11 10 10 10 10 9 9 9 9 9 8 8 8 8 8 8 7 7 7 7
16 16 16 16 15 15 15 14 14 14 14 13 13 13 13 13 12 12 12 11 11 11 10 10 10 10 10 9 9 9 9 8 8 8 8 8 7 7 7 7 7 6 6
16 16 16 15 15 15 15 14 14 13 13 13 13 12 12 12 12 11 11 11 11 10 10 10 10 9 9 9 9 8 8 8 8 7 7 7 7 6 6 6 6 6 5
16 16 15 15 15 15 14 14 14 13 13 12 12 12 12 11 11 11 11 10 10 10 10 9 9 9 9 8 8 8 8 7 7 7 6 6 6 6 5 5 5 5 5
16 15 15 15 15 14 14 13 13 13 13 12 12 12 11 11 11 11 10 10 10 9 9 9 9 8 8 8 8 7 7 7 6 6 6 5 5 5 5 5 4 4 4
15 15 15 14 14 14 13 13 13 12 12 12 11 11 11 11 10 10 10 9 9 9 9 8 8 8 8 7 7 7 6 6 6 5 5 5 5 4 4 4 4 4 3
15 15 14 14 14 13 13 12 12 12 11 11 11 11 10 10 10 10 9 9 9 8 8 8 8 7 7 7 6 6 6 5 5 5 5 4 4 4 4 3 3 3 3
14 14 14 13 13 13 12 12 12 11 11 11 10 10 10 10 10 9 9 9 8 8 8 7 7 7 6 6 6 6 5 5 5 4 4 4 4 3 3 3 3 3 2
14 13 13 13 12 12 12 11 11 11 11 10 10 9 9 9 9 9 8 8 8 7 7 7 6 6 6 5 5 5 5 4 4 4 4 3 3 3 3 3 2 2 2
13 13 13 12 12 12 11 11 11 10 10 10 9 9 9 8 8 8 8 7 7 7 6 6 6 6 5 5 5 4 4 4 4 4 3 3 3 3 2 2 2 1 1
13 12 12 12 11 11 11 10 10 9 9 9 9 8 8 8 8 7 7 7 6 6 6 6 5 5 5 5 4 4 4 3 3 3 2 2 2 2 2 1 1 1 0
12 12 11 11 11 10 10 9 9 9 9 8 8 8 7 7 7 7 6 6 6 6 5 5 5 4 4 4 4 3 3 3 2 2 2 2 2 1 1 1 0 0 -0
11 11 11 10 10 10 9 9 9 8 8 8 7 7 7 7 6 6 6 5 5 5 5 5 4 4 4 3 3 3 2 2 2 2 1 1 1 1 0 0 -0 -1 -1
Wind_Speed
6 5 5 4 4 4 3 3 3 3 3 3 3 3 3 3 3 3 2 3 3 2 2 3 2 2 2 2 2 2 2 3 2 1 1 1 1 1 1 1 1 1 2
7 6 5 4 4 4 3 3 3 3 3 3 3 3 3 2 3 3 3 3 3 2 1 2 1 2 2 2 2 2 2 2 3 1 1 1 1 1 1 1 2 2 2
7 6 5 5 5 5 4 3 3 3 3 3 4 4 3 2 2 2 3 2 2 2 2 2 1 2 2 1 2 2 1 1 2 2 1 1 1 1 1 2 2 2 3
8 7 7 6 6 5 4 3 3 3 3 3 4 4 3 3 3 3 3 3 2 1 1 1 2 3 3 2 2 1 2 2 2 2 0 1 1 2 1 1 2 2 3
9 8 7 6 6 5 4 4 3 3 4 4 4 3 3 3 3 4 3 3 3 2 1 1 1 3 3 3 2 2 2 2 2 1 0 1 1 1 1 1 1 3 3
10 9 7 6 6 5 5 4 4 3 3 3 4 4 3 2 4 6 5 3 3 2 2 1 1 1 2 3 3 3 3 3 2 2 1 1 2 2 2 1 1 1 3
10 9 8 7 7 6 5 4 4 4 3 3 3 4 3 3 5 6 6 4 3 2 2 1 1 1 2 2 2 3 2 2 3 3 2 3 3 3 2 1 1 2 3
10 9 8 8 7 6 5 5 4 3 4 3 3 4 3 3 5 5 6 4 3 2 2 3 2 1 1 2 2 1 1 1 1 1 3 3 3 3 3 2 3 2 3
10 10 9 9 8 7 6 6 4 4 3 3 3 4 4 3 5 5 5 3 2 1 1 1 2 2 2 2 2 1 2 3 3 1 2 2 3 3 2 1 1 1 3
11 10 9 9 9 8 8 6 4 4 4 4 3 4 4 4 5 6 6 3 2 1 1 1 2 3 3 3 3 2 2 3 2 2 3 4 4 4 3 1 3 2 2
9 9 8 8 8 7 6 5 4 4 4 3 3 2 3 4 5 6 6 4 4 3 2 2 2 3 3 3 3 3 4 3 1 1 2 2 2 2 3 2 2 3 3
8 8 8 8 7 6 6 5 4 5 4 3 2 1 2 2 3 4 6 6 5 4 3 3 2 2 2 2 1 2 2 1 0 0 1 2 2 3 3 3 4 4 5
8 8 7 7 5 6 6 6 4 4 4 3 3 2 2 2 2 4 5 5 5 3 2 3 2 2 1 1 2 1 0 0 0 1 2 3 3 3 2 3 4 4 5
9 8 7 7 5 4 4 5 5 5 5 4 4 3 3 2 2 2 2 2 3 2 1 1 0 0 0 1 1 1 0 1 1 2 3 3 2 2 2 2 2 3 3
9 7 7 6 6 4 3 3 5 5 7 7 6 5 4 4 5 5 4 3 3 3 2 1 1 1 0 1 1 1 1 1 1 2 2 2 3 3 3 3 2 2 2
8 7 6 5 5 5 4 2 2 1 3 5 6 5 4 5 4 4 5 5 4 5 4 2 1 2 2 2 2 2 1 2 2 2 2 2 3 4 4 3 2 3 4
8 7 6 6 6 5 5 5 2 2 3 0 3 4 4 4 3 4 4 4 4 5 3 2 2 3 3 2 2 2 2 3 2 2 3 3 3 3 3 4 3 4 5
7 8 7 6 6 5 5 4 4 4 2 1 1 2 3 3 3 3 4 4 1 1 2 3 3 3 3 3 3 3 3 2 2 2 3 3 3 3 4 4 4 5 5
7 6 5 5 5 5 4 4 4 4 3 2 0 1 0 1 1 1 3 3 3 3 3 3 3 3 3 3 3 3 3 3 3 3 3 3 3 3 4 5 5 7 6
6 7 7 5 5 4 4 4 4 4 3 2 2 2 1 2 1 0 1 2 3 3 3 3 3 3 3 3 3 3 3 3 3 3 4 4 3 3 5 6 6 6 6
5 6 7 5 5 5 5 5 4 4 4 3 3 3 4 3 3 2 2 3 3 4 4 3 3 3 3 3 3 3 3 3 3 4 4 4 4 4 5 5 6 6 6
5 5 5 5 5 4 5 5 4 4 4 3 2 1 4 2 2 2 2 2 3 3 3 3 3 3 3 3 3 3 3 4 4 4 4 4 4 5 5 5 5 5 6
5 5 4 4 4 5 5 4 4 4 3 3 3 2 2 2 2 2 2 2 2 2 2 2 2 2 2 2 2 2 3 4 4 4 4 4 4 4 4 5 6 6 7
6 6 5 5 4 4 4 3 3 3 3 3 2 2 2 2 2 2 2 2 1 1 1 2 2 1 1 1 1 2 3 4 4 4 4 4 5 4 4 5 6 7 7
5 5 5 5 5 4 4 3 3 3 3 2 2 2 2 2 1 1 1 1 1 1 1 1 1 1 1 1 2 3 4 5 6 6 5 4 5 5 5 6 6 7 8
5 5 5 4 4 4 4 4 3 3 2 2 2 2 2 2 1 1 1 1 1 1 1 0 1 1 1 2 3 5 6 7 7 8 6 4 4 5 6 6 7 7 8
Wind_Direction
166 163 160 162 156 143 146 162 164 152 143 144 143 127 110 95 94 101 103 110 107 91 86 101 92 91 86 79 94 101 107 123 142 286 309 320 356 338 347 326 307 336 348
172 163 168 164 153 150 156 163 153 146 144 145 142 134 132 121 112 111 109 110 118 113 110 105 96 96 84 75 91 100 117 134 145 170 322 346 315 294 320 339 327 317 308
167 163 166 166 162 165 173 172 162 151 143 133 134 142 146 140 129 130 124 115 123 136 134 134 148 117 103 97 99 99 104 104 121 148 234 323 323 335 1 350 359 344 327
167 167 173 179 177 177 176 174 175 164 156 155 154 160 158 148 136 134 126 113 103 103 116 130 149 152 156 151 127 133 129 104 100 117 118 343 331 323 34 350 336 330 326
170 174 185 187 181 174 172 179 173 167 171 168 153 151 154 149 150 142 135 124 117 104 81 88 119 125 126 135 129 148 136 121 108 110 95 12 337 344 308 288 303 313 317
176 183 185 179 176 179 183 179 164 164 166 155 156 155 160 172 158 153 145 138 137 133 127 103 70 87 95 102 104 116 129 137 153 151 183 215 261 258 268 273 285 347 314
180 182 180 178 178 184 177 164 168 173 162 163 172 163 174 189 166 156 150 144 146 152 157 158 129 79 106 97 71 66 63 92 147 161 177 219 232 237 222 260 253 237 256
180 183 182 179 183 181 170 175 184 177 169 176 183 179 181 199 177 162 153 141 144 162 179 186 183 208 157 134 112 60 359 331 266 199 195 223 234 231 210 220 229 251 277
181 185 184 180 181 178 180 187 188 173 174 183 181 180 186 217 193 175 152 142 148 200 223 181 180 199 220 159 137 164 312 313 328 293 260 277 293 294 255 119 343 342 304
190 189 183 179 179 183 187 186 178 169 183 183 189 193 192 212 208 193 171 157 170 216 273 267 221 215 227 192 173 180 241 276 303 339 334 323 324 322 310 212 204 230 266
187 178 175 177 181 181 179 175 168 165 168 182 197 215 211 219 218 208 190 179 188 202 230 253 255 241 234 214 189 195 226 234 230 256 297 316 330 330 327 315 240 206 227
164 167 173 177 179 174 168 174 168 164 169 187 196 245 265 246 221 214 201 197 187 188 218 232 234 230 225 211 207 240 247 246 164 306 315 306 302 296 294 306 298 268 247
157 165 168 166 169 168 172 176 171 168 172 185 183 210 254 266 247 226 210 203 199 191 212 220 226 240 260 269 281 286 305 175 180 264 278 277 273 278 302 319 324 313 306
158 165 165 163 165 162 167 172 172 178 181 186 193 210 232 253 257 232 204 202 197 200 213 243 306 7 70 309 335 333 307 213 212 239 262 277 299 310 302 301 301 308 311
158 159 158 159 157 154 155 174 186 199 193 191 201 200 199 227 237 206 180 186 188 190 154 105 78 58 16 312 307 299 299 308 280 269 267 284 291 290 288 287 282 288 283
156 161 162 158 152 147 142 117 44 159 186 192 195 191 210 214 207 186 184 184 174 153 132 144 194 212 227 239 250 273 276 267 262 259 262 266 275 280 286 289 281 274 279
160 163 160 157 155 156 154 153 148 25 34 131 203 199 201 196 185 172 169 163 154 142 144 192 216 227 235 237 241 246 261 268 265 263 267 272 277 280 284 287 286 284 286
154 160 160 164 164 166 169 171 168 164 170 300 308 232 209 188 170 167 157 128 111 151 192 213 227 232 233 239 244 249 257 269 271 273 271 271 269 275 283 285 283 282 286
149 156 160 161 164 167 164 163 164 167 172 188 206 344 131 131 108 120 137 152 186 210 219 227 230 231 237 240 245 247 251 261 268 265 265 264 265 270 278 280 281 283 282
151 154 152 155 157 157 158 160 164 167 173 184 200 212 165 110 115 166 179 192 203 219 222 225 231 230 232 238 244 247 255 261 264 261 264 266 269 270 275 279 281 283 281
147 155 151 148 159 165 165 170 172 171 177 188 209 201 162 159 185 202 209 214 218 225 228 227 229 230 234 240 242 248 252 258 258 259 264 268 273 278 276 275 278 279 283
148 152 157 160 162 163 164 167 166 170 176 179 188 171 162 153 178 195 212 228 232 232 221 218 229 232 231 234 237 241 251 261 267 268 270 273 275 278 281 283 286 290 291
147 148 149 152 154 154 153 157 162 165 170 175 174 164 163 180 196 207 219 231 234 226 218 203 216 236 259 252 245 243 247 261 270 277 278 283 284 286 290 292 295 298 295
149 151 153 152 148 150 154 158 162 166 168 170 169 171 179 191 204 215 222 227 216 213 199 181 175 190 246 277 276 275 274 280 288 289 279 278 285 287 287 288 289 291 293
146 146 147 151 151 149 147 149 154 159 162 165 169 173 178 181 193 205 216 212 201 191 181 178 184 220 257 275 289 294 293 294 296 298 293 282 278 282 285 288 290 293 292
139 141 143 144 146 147 149 153 157 159 164 169 169 171 174 178 185 196 200 184 180 168 167 198 225 247 281 301 301 301 304 305 306 305 304 295 286 286 290 289 290 291 293
Height
1556 1557 1559 1560 1561 1561 1562 1562 1562 1562 1563 1563 1563 1562 1562 1562 1562 1562 1562 1561 1561 1561 1561 1561 1561 1561 1561 1561 1561 1561 1561 1561 1560 1561 1560 1560 1559 1559 1558 1557 1556 1555 1554
1554 1556 1558 1559 1560 1561 1561 1562 1562 1562 1562 1562 1563 1563 1562 1562 1562 1562 1562 1561 1561 1561 1561 1561 1561 1561 1561 1561 1561 1561 1561 1561 1560 1560 1560 1559 1559 1558 1558 1557 1556 1555 1554
1553 1555 1556 1557 1559 1559 1560 1561 1561 1562 1562 1562 1562 1562 1562 1562 1562 1561 1561 1561 1561 1561 1561 1561 1561 1561 1561 1561 1560 1560 1560 1560 1560 1559 1559 1559 1558 1558 1557 1556 1555 1554 1553
1551 1553 1554 1556 1557 1558 1559 1560 1560 1561 1561 1561 1561 1561 1561 1561 1561 1561 1561 1561 1561 1561 1560 1560 1560 1560 1560 1560 1560 1559 1559 1559 1559 1558 1558 1557 1557 1556 1555 1554 1553 1552 1551
1548 1550 1552 1554 1556 1557 1557 1558 1559 1559 1560 1560 1560 1560 1560 1560 1560 1560 1560 1560 1560 1560 1560 1559 1559 1559 1559 1559 1558 1558 1558 1558 1557 1557 1556 1555 1555 1554 1554 1553 1551 1550 1549
1545 1547 1550 1552 1554 1555 1556 1557 1557 1558 1558 1559 1559 1559 1559 1559 1559 1559 1559 1559 1559 1559 1558 1558 1558 1558 1558 1557 1557 1557 1557 1556 1555 1555 1554 1553 1553 1552 1551 1550 1549 1547 1546
1543 1545 1547 1550 1551 1552 1554 1555 1555 1556 1557 1557 1557 1558 1558 1558 1558 1558 1558 1558 1557 1557 1557 1557 1556 1556 1556 1556 1555 1555 1555 1554 1554 1554 1552 1552 1551 1550 1549 1548 1547 1545 1544
1540 1542 1545 1547 1549 1550 1552 1553 1554 1554 1555 1555 1555 1556 1556 1556 1556 1556 1556 1556 1556 1555 1555 1555 1555 1555 1555 1554 1554 1553 1552 1552 1551 1551 1550 1549 1549 1548 1547 1546 1544 1543 1541
1537 1540 1542 1544 1546 1548 1549 1550 1551 1552 1552 1553 1553 1553 1554 1554 1554 1554 1554 1554 1554 1553 1553 1553 1553 1552 1552 1552 1551 1550 1550 1549 1549 1548 1548 1547 1546 1545 1544 1542 1541 1539 1537
1534 1537 1539 1542 1543 1545 1547 1548 1549 1550 1550 1550 1551 1551 1551 1551 1552 1552 1552 1551 1551 1551 1551 1551 1550 1550 1550 1549 1549 1548 1547 1546 1546 1545 1544 1544 1543 1542 1541 1539 1538 1536 1534
1532 1534 1537 1539 1541 1543 1545 1546 1547 1547 1548 1548 1548 1548 1548 1549 1549 1549 1549 1549 1548 1548 1548 1548 1548 1547 1547 1546 1546 1545 1544 1544 1543 1542 1541 1540 1539 1538 1537 1536 1535 1533 1531
1530 1532 1534 1537 1539 1540 1542 1543 1544 1545 1545 1545 1545 1545 1545 1546 1546 1546 1546 1546 1546 1545 1545 1545 1545 1544 1544 1543 1543 1542 1541 1541 1539 1538 1537 1536 1535 1534 1533 1532 1531 1529 1527
1527 1529 1532 1534 1536 1537 1539 1540 1541 1542 1542 1542 1543 1543 1543 1543 1543 1543 1543 1543 1543 1542 1542 1542 1542 1541 1540 1540 1539 1539 1538 1537 1536 1535 1533 1532 1531 1530 1529 1527 1526 1524 1523
1525 1527 1529 1531 1533 1534 1536 1537 1538 1539 1539 1540 1540 1540 1540 1540 1540 1540 1539 1540 1539 1539 1539 1538 1538 1537 1537 1536 1536 1535 1534 1533 1532 1531 1530 1529 1528 1526 1524 1523 1521 1519 1517
1522 1524 1526 1528 1530 1531 1533 1534 1535 1536 1536 1537 1537 1537 1538 1537 1537 1537 1537 1536 1536 1536 1535 1535 1534 1533 1533 1532 1532 1531 1530 1529 1528 1527 1526 1524 1523 1521 1520 1518 1516 1514 1511
1519 1522 1523 1525 1527 1528 1530 1531 1532 1533 1534 1534 1535 1535 1535 1535 1535 1534 1534 1534 1533 1533 1532 1531 1530 1529 1529 1528 1528 1527 1526 1525 1524 1523 1522 1520 1518 1516 1514 1513 1511 1509 1506
1517 1519 1521 1522 1524 1525 1526 1528 1528 1530 1531 1531 1532 1532 1532 1532 1532 1531 1531 1530 1530 1529 1528 1527 1526 1526 1525 1525 1524 1523 1522 1521 1520 1518 1517 1515 1513 1511 1509 1507 1505 1503 1500
1515 1516 1518 1519 1521 1522 1524 1525 1526 1526 1527 1527 1528 1528 1528 1528 1528 1528 1528 1527 1526 1525 1524 1523 1523 1522 1522 1521 1520 1519 1517 1516 1515 1513 1512 1510 1508 1506 1504 1502 1500 1497 1495
1512 1514 1515 1517 1518 1520 1521 1522 1523 1523 1524 1524 1524 1524 1525 1525 1524 1524 1524 1523 1522 1521 1520 1520 1519 1518 1518 1517 1515 1514 1513 1511 1510 1508 1506 1505 1503 1501 1498 1496 1494 1492 1489
1509 1511 1513 1514 1515 1517 1518 1519 1519 1520 1520 1521 1521 1521 1521 1521 1520 1520 1520 1519 1518 1517 1516 1516 1515 1514 1513 1512 1511 1509 1508 1506 1505 1503 1501 1499 1497 1495 1493 1491 1488 1485 1483
1507 1508 1510 1511 1512 1513 1514 1515 1516 1517 1517 1517 1518 1518 1518 1518 1517 1517 1516 1515 1514 1513 1512 1511 1511 1510 1509 1507 1506 1504 1503 1501 1499 1497 1495 1494 1492 1489 1487 1485 1482 1480 1477
1504 1506 1507 1508 1509 1510 1511 1512 1513 1513 1514 1514 1514 1514 1514 1514 1514 1513 1512 1511 1511 1510 1508 1507 1506 1505 1504 1503 1501 1499 1498 1496 1494 1492 1490 1488 1486 1483 1481 1478 1476 1473 1471
1501 1502 1504 1505 1506 1507 1508 1509 1509 1510 1510 1510 1511 1511 1510 1510 1510 1509 1508 1508 1507 1506 1504 1503 1502 1500 1499 1498 1496 1495 1493 1491 1489 1487 1485 1482 1480 1478 1475 1473 1470 1467 1464
1498 1499 1500 1502 1503 1504 1505 1505 1506 1506 1507 1507 1507 1507 1507 1506 1506 1505 1505 1504 1503 1502 1500 1499 1497 1496 1495 1493 1491 1489 1488 1486 1483 1481 1479 1477 1474 1472 1469 1467 1464 1462 1459
1495 1496 1497 1498 1499 1500 1501 1502 1503 1503 1504 1504 1504 1504 1503 1503 1502 1502 1501 1500 1499 1498 1496 1495 1493 1492 1490 1488 1486 1484 1482 1480 1478 1476 1474 1472 1469 1466 1464 1461 1459 1456 1453
1492 1493 1494 1495 1496 1497 1498 1499 1500 1500 1500 1500 1500 1500 1500 1499 1499 1498 1497 1496 1495 1493 1492 1491 1489 1487 1485 1483 1481 1479 1477 1475 1473 1471 1469 1466 1464 1461 1458 1456 1453 1450 1447